This is the latest recevied weather packets stored in our database for station/object KB2FWP. If no packets are shown the sender has not sent any weather packets the latest 10 day(s).
| Time | Temp. | Humidity | Pressure | Rain* | Wind** | Luminosity | Snow |
|---|---|---|---|---|---|---|---|
| 1777740314 | 12.22° C | 83% | 1013.1 hPa | 0 mm | - | - | - |
| 1777739421 | 12.22° C | 84% | 1013.1 hPa | 0 mm | - | - | - |
| 1777738514 | 11.67° C | 86% | 1013.1 hPa | 0 mm | - | - | - |
| 1777737616 | 11.67° C | 86% | 1013.2 hPa | 0 mm | - | - | - |
| 1777736717 | 11.67° C | 87% | 1013.3 hPa | 0 mm | - | - | - |
| 1777735812 | 11.67° C | 86% | 1013.4 hPa | 0 mm | - | - | - |
| 1777734912 | 12.22° C | 84% | 1013.4 hPa | 0 mm | - | - | - |
| 1777734017 | 12.22° C | 82% | 1013.5 hPa | 0 mm | - | - | - |
| 1777733110 | 12.78° C | 82% | 1013.5 hPa | 0 mm | - | - | - |
| 1777732214 | 12.22° C | 84% | 1013.4 hPa | 0 mm | - | - | - |
| 1777731307 | 12.22° C | 86% | 1013.4 hPa | 0 mm | - | - | - |
| 1777730407 | 12.22° C | 86% | 1013.7 hPa | 0 mm | - | - | - |
| 1777729508 | 12.22° C | 88% | 1013.6 hPa | 0 mm | - | - | - |
| 1777728604 | 12.22° C | 89% | 1013.5 hPa | 0 mm | - | - | - |
| 1777727702 | 11.67° C | 90% | 1013.6 hPa | 0 mm | - | - | - |
| 1777726860 | 11.11° C | 91% | 1013.7 hPa | 0 mm | - | - | - |
| 1777725959 | 10.56° C | 91% | 1013.6 hPa | 0 mm | - | - | - |
| 1777725057 | 10.56° C | 92% | 1013.6 hPa | 0 mm | - | - | - |
| 1777724155 | 10.56° C | 91% | 1013.6 hPa | 0 mm | - | - | - |
| 1777723254 | 10° C | 91% | 1013.7 hPa | 0 mm | - | - | - |
| 1777722366 | 10° C | 91% | 1013.6 hPa | 0.51 mm | - | - | - |
| 1777721454 | 10° C | 91% | 1013.3 hPa | 0.51 mm | - | - | - |
| 1777720555 | 10° C | 90% | 1013.1 hPa | 0.51 mm | - | - | - |
| 1777719652 | 10° C | 89% | 1012.9 hPa | 0.51 mm | - | - | - |
| 1777718752 | 10° C | 88% | 1013.1 hPa | 0 mm | - | - | - |
* Rain latest hour (hover to see other rain measurements)
** Current wind speed in m/s (hover to see current wind gust speed)